Regional Weather Roundup
Issued by NWS

Home | Current Version | Previous Version | Graphics & Text | Print | Product List | Glossary On
Versions: 1 2 3 4 5 6 7 8 9 10 11 12 13 14 15 16 17 18 19 20 21 22 23 24 25 26 27 28 29 30 31 32 33 34 35 36 37 38 39 40 41 42 43 44 45 46 47 48 49 50
000
ASUS44 KMEG 230800
RWRTN
TENNESSEE HOURLY STATE WEATHER ROUNDUP
NATIONAL WEATHER SERVICE MEMPHIS TN
200 AM CST SUN NOV 23 2014

TNZ002-004-019-021-049-052-054-088>092-230900-
WEST TENNESSEE

CITY           SKY/WX    TMP DP  RH WIND       PRES   REMARKS
MEMPHIS INTL   MOCLDY    59  51  75 SE12      29.86F
NWS MEMPHIS      N/A     59 N/A N/A MISG        N/A
JACKSON        CLOUDY    60  50  69 SE7       29.91F
DYERSBURG      CLEAR     54  39  58 SE8       29.91F
UNION CITY     MOCLDY    52  46  82 SE3       29.91F
PARIS          CLOUDY    52  43  71 SE6       29.94F
LEXINGTON      CLOUDY    57  46  67 SE6       29.93F
SAVANNAH       CLOUDY    59  50  72 SE8       29.94F
$$

TNZ008-025-027-028-033-062-065-066-230900-
NORTH MIDDLE TENNESSEE

CITY           SKY/WX    TMP DP  RH WIND       PRES   REMARKS
NASHVILLE      MOCLDY    53  37  54 SE7       30.03S
CLARKSVILLE    CLEAR     53  40  61 S7        29.98F
COOKEVILLE     CLOUDY    55  43  62 S9        30.06F
CROSSVILLE     MOCLDY    53  35  50 VRB7G20   30.10F
$$

TNZ061-075-076-078-094-096-097-230900-
SOUTH MIDDLE TENNESSEE

CITY           SKY/WX    TMP DP  RH WIND       PRES   REMARKS
FAYETTEVILLE   PTCLDY    54  39  58 N18G36    30.01F
TULLAHOMA      PTCLDY    54  37  54 SE15      30.03F
WINCHESTER     MOCLDY    54  39  58 SE13      30.04F
SHELBYVILLE    PTCLDY    54  39  58 SE7       30.03F
$$

TNZ017-018-042-046-047-230900-
NORTHEAST TENNESSEE

CITY           SKY/WX    TMP DP  RH WIND       PRES   REMARKS
TRI CITIES     MOCLDY    34  27  75 NE3       30.18S
ELIZABETHTON   SUNNY     37  28  70 NE6       30.18S WCI  33
$$

TNZ012-013-036-069-073-074-230900-
CENTRAL EAST TENNESSEE

CITY           SKY/WX    TMP DP  RH WIND       PRES   REMARKS
KNOXVILLE      MOCLDY    39  32  76 N7        30.14S WCI  34
OAK RIDGE      PTCLDY    43  35  73 CALM      30.15S
GATLINBURG     SUNNY     34  28  80 CALM      30.14F
$$

TNZ083-085-099-230900-
SOUTHEAST TENNESSEE

CITY           SKY/WX    TMP DP  RH WIND       PRES   REMARKS
CHATTANOOGA    CLOUDY    56  36  47 S7        30.12F
$$

SKY/WX REPORTED AS FAIR MEANS FEW OR NO CLOUDS BELOW
12 THOUSAND FEET.




USA.gov is the U.S. government's official web portal to all federal, state and local government web resources and services.